Location: Unspecified
(40.7945°N, 111.1337°W)
Time: 15:31:48
(UTC-06:00)

Vanguard 1 - Pass Details

Date: 16 June 2019
Orbit: 653 x 3830 km, 34.3° (Epoch: 17 July)

Event Time Altitude Azimuth Distance (km) Brightness Sun altitude
Exits shadow 02:10:21 13° 148° (SSE) 5,414 13.4 -25.0°
Maximum altitude 02:11:13 13° 145° (SE) 5,333 13.4 -25.0°
Drops below altitude 10° 02:16:58 10° 122° (ESE) 5,046 13.5 -24.7°
Sets 02:23:14 0° 98° (E) 5,353 13.9 -24.5°
